[[{"header":{"parameterUnit":"m.s-1","parameterCategory":1,"la1":30.2992,"la2":30.254,"lo1":-89.0895,"lo2":-89.0443,"dy":0.0025,"dx":0.0025,"nx":19,"ny":19,"refTime":"2026-04-20T03:00:00:Z","depth":0,"parameterNumber":2,"parameterNumberName":"U-component_of_WINDS"},"data":[0,0,0,-3.0143,-3.0144,-3.0207,-3.0207,-3.0299,-3.03,0,0,0,0,0,0,0,0,0,0,0,-3.0132,-3.0133,-3.0143,-3.0145,-3.0207,-3.0207,-3.0299,-3.03,0,0,0,0,0,0,0,0,0,0,0,-3.0132,-3.0133,-3.0134,-3.0145,-3.0207,-3.0207,-3.0299,-3.0247,0,0,0,0,0,0,0,0,0,0,-3.0184,-3.0182,-3.0133,-3.0134,-3.0145,-3.0207,-3.0207,-3.0245,-3.025,-3.0276,0,-3.0302,0,-3.0303,-3.0307,-3.0308,0,0,0,-3.0138,-3.0178,-3.0187,-3.0134,-3.0146,-3.0207,-3.0177,-3.0248,-3.0254,-3.0284,-3.0303,-3.0306,-3.0304,-3.0308,-3.0308,-3.0479,-3.048,0,0,-3.0135,-3.0148,-3.0183,-3.0192,-3.0184,-3.0175,-3.0179,-3.0252,-3.0273,-3.0303,-3.0308,-3.0306,-3.0309,-3.0309,-3.0478,-3.0479,0,0,0,-3.0129,-3.0146,-3.0153,-3.0189,-3.0199,-3.0177,-3.0182,-3.0269,-3.0271,-3.0309,-3.0307,-3.0309,-3.031,-3.0477,-3.0478,-3.0544,0,0,0,-3.0127,-3.0142,-3.0152,-3.016,-3.0198,-3.0235,-3.0198,-3.0266,-3.0274,-3.0306,-3.0309,-3.0311,-3.0475,-3.0478,-3.0539,-3.0572,0,0,0,-3.0125,-3.0142,-3.0154,-3.0161,-3.0188,-3.0234,-3.0239,-3.0267,-3.0273,-3.0308,-3.0312,-3.0475,-3.0477,-3.0535,-3.0565,-3.062,0,0,0,-3.0127,-3.0211,-3.0155,-3.0247,-3.0188,-3.0274,-3.0239,-3.0302,-3.034,-3.031,-3.0476,-3.0478,-3.0534,-3.0561,-3.0616,-3.0667,-3.069,0,0,-3.0239,-3.0225,-3.0278,-3.023,-3.0329,-3.0264,-3.0372,-3.0395,-3.0387,-3.0448,-3.0452,-3.0541,-3.0565,-3.0619,-3.0816,-3.0834,0,0,0,-3.0318,-3.0356,-3.038,-3.0416,-3.0436,-3.0455,-3.046,-3.0468,-3.052,-3.0421,-3.0575,-3.0589,-3.062,-3.0644,-3.066,-3.0685,-3.049,-3.049,-3.049,-3.0493,-3.0479,-3.0566,-3.0559,-3.0595,-3.0599,-3.0627,-3.0639,-3.0613,-3.065,-3.0668,-3.0789,-3.0818,-3.0829,-3.0856,-3.0695,-3.0695,-3.0695,-3.0695,-3.0655,-3.0707,-3.0672,-3.0743,-3.0727,-3.0787,-3.0794,-3.0774,-3.0827,-3.0774,-3.0801,-3.0744,-3.085,-3.0872,-3.07,-3.0699,-3.0699,-3.0698,-3.0698,-3.0768,-3.079,-3.0799,-3.0851,-3.0892,-3.0882,-3.0935,-3.0918,-3.0903,-3.093,-3.0946,-3.0945,-3.0941,-3.0939,-3.094,-3.094,-3.094,-3.0941,-3.0941,-3.0881,-3.0889,-3.0935,-3.0964,-3.0985,-3.1011,-3.1017,-3.1037,-3.1055,-3.1039,-3.1039,-3.101,-3.0863,-3.0826,-3.0947,-3.0946,-3.0945,-3.0945,-3.0944,-3.1048,-3.1008,-3.108,-3.1101,-3.1133,-3.1175,-3.1153,-3.1197,-3.1211,-3.1237,-3.1203,-3.1098,-3.1081,-3.1068,-3.1038,-3.1206,-3.1206,-3.1206,-3.1206,-3.1143,-3.1133,-3.1202,-3.1238,-3.1271,-3.1259,-3.134,-3.1345,-3.1344,-3.1352,-3.1325,-3.1284,-3.1272,-3.1262,-3.1245,-3.1216,-3.1426,-3.1427,-3.1427,-3.1244,-3.1237,-3.1309,-3.1308,-3.1332,-3.1352,-3.1427,-3.1469,-3.146,-3.1435,-3.1358,-3.1348,-3.1281,-3.126,-3.1232,-3.1207,-3.1153,0,0]},{"header":{"parameterUnit":"m.s-1","parameterCategory":1,"la1":30.2992,"la2":30.254,"lo1":-89.0895,"lo2":-89.0443,"dy":0.0025,"dx":0.0025,"nx":19,"ny":19,"refTime":"2026-04-20T03:00:00:Z","depth":0,"parameterNumber":3,"parameterNumberName":"V-component_of_WINDS"},"data":[0,0,0,3.7963,3.7965,3.8039,3.8039,3.8137,3.8138,0,0,0,0,0,0,0,0,0,0,0,3.7946,3.7946,3.7963,3.7965,3.8038,3.8039,3.8136,3.8138,0,0,0,0,0,0,0,0,0,0,0,3.7945,3.7946,3.7947,3.7965,3.8038,3.8039,3.8136,3.8079,0,0,0,0,0,0,0,0,0,0,3.8006,3.7995,3.7946,3.7947,3.7965,3.8038,3.8039,3.8076,3.8082,3.8105,0,3.8129,0,3.8135,3.8145,3.8145,0,0,0,3.7961,3.799,3.8006,3.7947,3.7966,3.8038,3.8004,3.8079,3.8087,3.8114,3.8131,3.8134,3.8137,3.8145,3.8146,3.8298,3.8299,0,0,3.7956,3.7961,3.8001,3.8011,3.8003,3.8002,3.8006,3.8084,3.8101,3.8131,3.8136,3.8139,3.8146,3.8147,3.8297,3.8298,0,0,0,3.7948,3.7958,3.7972,3.8007,3.802,3.8004,3.8009,3.8098,3.8102,3.8137,3.814,3.8147,3.8148,3.8296,3.8298,3.8346,0,0,0,3.7945,3.7953,3.797,3.7974,3.8019,3.8061,3.8022,3.8097,3.8105,3.8139,3.8147,3.8149,3.8295,3.8297,3.8343,3.8368,0,0,0,3.7939,3.7952,3.7965,3.7974,3.8006,3.8059,3.8068,3.8099,3.8107,3.8145,3.8149,3.8295,3.8297,3.834,3.8362,3.8408,0,0,0,3.7933,3.8006,3.7965,3.8047,3.8006,3.809,3.8067,3.813,3.8168,3.8147,3.8295,3.8297,3.8339,3.8359,3.8405,3.8446,3.8464,0,0,3.8027,3.8018,3.8066,3.8031,3.8124,3.8078,3.8177,3.8208,3.8206,3.8267,3.8271,3.8344,3.8362,3.8407,3.8567,3.8582,0,0,0,3.8097,3.8131,3.8155,3.8193,3.8219,3.8243,3.8258,3.8269,3.832,3.8239,3.8373,3.8384,3.841,3.8429,3.8442,3.8463,3.8307,3.8307,3.8307,3.8234,3.8231,3.8309,3.8314,3.8351,3.8366,3.8394,3.8411,3.8396,3.8428,3.8445,3.8543,3.8566,3.8575,3.8597,3.8468,3.8468,3.8468,3.8468,3.8371,3.8418,3.8397,3.8465,3.8459,3.8516,3.8533,3.852,3.857,3.8529,3.8552,3.8507,3.8591,3.861,3.8472,3.8471,3.8471,3.847,3.847,3.8459,3.8481,3.8495,3.8549,3.859,3.8592,3.8641,3.8635,3.8628,3.8651,3.8668,3.8667,3.8663,3.866,3.866,3.8661,3.8661,3.8661,3.8661,3.8545,3.8559,3.8603,3.8637,3.866,3.8689,3.8705,3.8726,3.8748,3.8739,3.8739,3.8719,3.8601,3.8571,3.8666,3.8666,3.8665,3.8664,3.8664,3.8682,3.865,3.8717,3.8741,3.8779,3.882,3.8811,3.8856,3.8873,3.8897,3.8872,3.8787,3.8776,3.8766,3.874,3.8874,3.8874,3.8874,3.8874,3.8755,3.875,3.8817,3.8854,3.8889,3.8888,3.8962,3.8975,3.8982,3.8992,3.8972,3.8938,3.8928,3.8922,3.8909,3.8885,3.9053,3.9053,3.9053,3.8838,3.8836,3.8901,3.891,3.8939,3.8964,3.9033,3.9074,3.9076,3.906,3.8999,3.8991,3.8936,3.8919,3.8901,3.888,3.8836,0,0]}]]